owner,sensor,date,latitude,longitude,vertical_datum,mass_concentration_of_oxygen_in_sea_water,qcFlag 
SCCF RECON,ioos:station:SCCF:11:1,2017-10-01T04:00:00Z,26.4679,-82.0631,2.17,2.65,1111122 
SCCF RECON,ioos:station:SCCF:11:1,2017-10-01T05:00:00Z,26.4679,-82.0631,2.15,2.0,1111122 
SCCF RECON,ioos:station:SCCF:11:1,2017-10-01T12:00:00Z,26.4679,-82.0631,2.111,2.71,1111122 
SCCF RECON,ioos:station:SCCF:11:1,2017-10-01T13:00:00Z,26.4679,-82.0631,2.19,1.68,1111122 
SCCF RECON,ioos:station:SCCF:11:1,2017-10-01T14:00:00Z,26.4679,-82.0631,2.22,2.2,1111122 
SCCF RECON,ioos:station:SCCF:11:1,2017-10-01T15:00:00Z,26.4679,-82.0631,2.21,2.08,1111122 
SCCF RECON,ioos:station:SCCF:11:1,2017-10-01T16:00:00Z,26.4679,-82.0631,2.17,1.68,1111122 
SCCF RECON,ioos:station:SCCF:11:1,2017-10-01T17:00:00Z,26.4679,-82.0631,2.11,2.42,1111122 
SCCF RECON,ioos:station:SCCF:11:1,2017-10-01T18:00:00Z,26.4679,-82.0631,1.985,4.07,1111122 
SCCF RECON,ioos:station:SCCF:11:1,2017-10-01T19:00:00Z,26.4679,-82.0631,1.84,4.99,1111122 
SCCF RECON,ioos:station:SCCF:11:1,2017-10-01T20:00:00Z,26.4679,-82.0631,1.74,5.13,1111122 
SCCF RECON,ioos:station:SCCF:11:1,2017-10-01T21:00:00Z,26.4679,-82.0631,1.68,5.94,1111122 
SCCF RECON,ioos:station:SCCF:11:1,2017-10-01T22:00:00Z,26.4679,-82.0631,1.69,5.38,1111122 
SCCF RECON,ioos:station:SCCF:11:1,2017-10-02T04:00:00Z,26.4679,-82.0631,2.21,2.31,1111122 
SCCF RECON,ioos:station:SCCF:11:1,2017-10-02T08:00:00Z,26.4679,-82.0631,1.95,3.96,1111122 
SCCF RECON,ioos:station:SCCF:11:1,2017-10-02T12:00:00Z,26.4679,-82.0631,2.14,4.83,1111122 
SCCF RECON,ioos:station:SCCF:11:1,2017-10-02T13:00:00Z,26.4679,-82.0631,2.23,4.62,1111122 
SCCF RECON,ioos:station:SCCF:11:1,2017-10-02T14:00:00Z,26.4679,-82.0631,2.28,3.29,1111122 
SCCF RECON,ioos:station:SCCF:11:1,2017-10-02T15:00:00Z,26.4679,-82.0631,2.32,4.12,1111122 
SCCF RECON,ioos:station:SCCF:11:1,2017-10-02T16:00:00Z,26.4679,-82.0631,2.32,4.14,1111122 
SCCF RECON,ioos:station:SCCF:11:1,2017-10-02T17:00:00Z,26.4679,-82.0631,2.31,3.9,1111122 
SCCF RECON,ioos:station:SCCF:11:1,2017-10-02T18:00:00Z,26.4679,-82.0631,2.21,4.41,1111122 
SCCF RECON,ioos:station:SCCF:11:1,2017-10-02T19:00:00Z,26.4679,-82.0631,2.058,5.01,1111122 
SCCF RECON,ioos:station:SCCF:11:1,2017-10-02T20:00:00Z,26.4679,-82.0631,1.932,5.74,1111122 
SCCF RECON,ioos:station:SCCF:11:1,2017-10-02T21:00:00Z,26.4679,-82.0631,1.834,5.16,1111122 
SCCF RECON,ioos:station:SCCF:11:1,2017-10-02T22:00:00Z,26.4679,-82.0631,1.727,5.63,1111122 
SCCF RECON,ioos:station:SCCF:11:1,2017-10-03T04:00:00Z,26.4679,-82.0631,2.225,5.45,1111122 
SCCF RECON,ioos:station:SCCF:11:1,2017-10-03T05:00:00Z,26.4679,-82.0631,2.18,5.32,1111122 
SCCF RECON,ioos:station:SCCF:11:1,2017-10-03T06:00:00Z,26.4679,-82.0631,2.095,5.2,1111122 
SCCF RECON,ioos:station:SCCF:11:1,2017-10-03T07:00:00Z,26.4679,-82.0631,1.969,5.02,1111122 
SCCF RECON,ioos:station:SCCF:11:1,2017-10-03T08:00:00Z,26.4679,-82.0631,1.888,5.1,1111122 
SCCF RECON,ioos:station:SCCF:11:1,2017-10-03T09:00:00Z,26.4679,-82.0631,1.816,5.15,1111122 
SCCF RECON,ioos:station:SCCF:11:1,2017-10-03T12:00:00Z,26.4679,-82.0631,1.949,5.51,1111122 
SCCF RECON,ioos:station:SCCF:11:1,2017-10-03T13:00:00Z,26.4679,-82.0631,2.076,5.74,1111122 
SCCF RECON,ioos:station:SCCF:11:1,2017-10-03T14:00:00Z,26.4679,-82.0631,2.179,5.77,1111122 
SCCF RECON,ioos:station:SCCF:11:1,2017-10-03T15:00:00Z,26.4679,-82.0631,2.236,5.65,1111122 
SCCF RECON,ioos:station:SCCF:11:1,2017-10-03T16:00:00Z,26.4679,-82.0631,2.261,5.71,1111122 
SCCF RECON,ioos:station:SCCF:11:1,2017-10-03T17:00:00Z,26.4679,-82.0631,2.22,6.09,1111122 
SCCF RECON,ioos:station:SCCF:11:1,2017-10-03T18:00:00Z,26.4679,-82.0631,2.153,5.59,1111122 
SCCF RECON,ioos:station:SCCF:11:1,2017-10-03T19:00:00Z,26.4679,-82.0631,2.04,5.69,1111122 
SCCF RECON,ioos:station:SCCF:11:1,2017-10-03T20:00:00Z,26.4679,-82.0631,1.874,5.95,1111122 
SCCF RECON,ioos:station:SCCF:11:1,2017-10-03T21:00:00Z,26.4679,-82.0631,1.746,6.01,1111122 
SCCF RECON,ioos:station:SCCF:11:1,2017-10-03T22:00:00Z,26.4679,-82.0631,1.64,6.12,1111122 
SCCF RECON,ioos:station:SCCF:11:1,2017-10-04T04:00:00Z,26.4679,-82.0631,2.101,6.07,1111122 
SCCF RECON,ioos:station:SCCF:11:1,2017-10-04T05:00:00Z,26.4679,-82.0631,2.119,6.18,1111122 
SCCF RECON,ioos:station:SCCF:11:1,2017-10-04T06:00:00Z,26.4679,-82.0631,2.088,6.05,1111122 
SCCF RECON,ioos:station:SCCF:11:1,2017-10-04T07:00:00Z,26.4679,-82.0631,1.975,5.61,1111122 
SCCF RECON,ioos:station:SCCF:11:1,2017-10-04T08:00:00Z,26.4679,-82.0631,1.832,5.92,1111122 
SCCF RECON,ioos:station:SCCF:11:1,2017-10-04T09:00:00Z,26.4679,-82.0631,1.71,5.61,1111122 
SCCF RECON,ioos:station:SCCF:11:1,2017-10-04T11:00:00Z,26.4679,-82.0631,1.62,5.57,1111122 
SCCF RECON,ioos:station:SCCF:11:1,2017-10-04T12:00:00Z,26.4679,-82.0631,1.7,5.69,1111122 
SCCF RECON,ioos:station:SCCF:11:1,2017-10-04T13:00:00Z,26.4679,-82.0631,1.876,6.24,1111122 
SCCF RECON,ioos:station:SCCF:11:1,2017-10-04T14:00:00Z,26.4679,-82.0631,2.017,6.29,1111122 
SCCF RECON,ioos:station:SCCF:11:1,2017-10-04T15:00:00Z,26.4679,-82.0631,2.12,6.37,1111122 
SCCF RECON,ioos:station:SCCF:11:1,2017-10-04T16:00:00Z,26.4679,-82.0631,2.198,6.31,1111122 
SCCF RECON,ioos:station:SCCF:11:1,2017-10-04T17:00:00Z,26.4679,-82.0631,2.207,6.3,1111122 
SCCF RECON,ioos:station:SCCF:11:1,2017-10-04T18:00:00Z,26.4679,-82.0631,2.174,6.09,1111122 
SCCF RECON,ioos:station:SCCF:11:1,2017-10-04T19:00:00Z,26.4679,-82.0631,2.098,6.13,1111122 
SCCF RECON,ioos:station:SCCF:11:1,2017-10-04T20:00:00Z,26.4679,-82.0631,1.96,6.3,1111122 
SCCF RECON,ioos:station:SCCF:11:1,2017-10-04T21:00:00Z,26.4679,-82.0631,1.877,6.4,1111122 
SCCF RECON,ioos:station:SCCF:11:1,2017-10-04T22:00:00Z,26.4679,-82.0631,1.783,6.34,1111122 
SCCF RECON,ioos:station:SCCF:11:1,2017-10-05T04:00:00Z,26.4679,-82.0631,2.18,6.59,1111122 
SCCF RECON,ioos:station:SCCF:11:1,2017-10-05T05:00:00Z,26.4679,-82.0631,2.251,6.39,1111122 
SCCF RECON,ioos:station:SCCF:11:1,2017-10-05T06:00:00Z,26.4679,-82.0631,2.23,6.41,1111122 
SCCF RECON,ioos:station:SCCF:11:1,2017-10-05T07:00:00Z,26.4679,-82.0631,2.142,6.16,1111122 
SCCF RECON,ioos:station:SCCF:11:1,2017-10-05T08:00:00Z,26.4679,-82.0631,2.009,6.23,1111122 
SCCF RECON,ioos:station:SCCF:11:1,2017-10-05T09:00:00Z,26.4679,-82.0631,1.876,6.05,1111122 
SCCF RECON,ioos:station:SCCF:11:1,2017-10-05T10:00:00Z,26.4679,-82.0631,1.783,5.76,1111122 
SCCF RECON,ioos:station:SCCF:11:1,2017-10-05T11:00:00Z,26.4679,-82.0631,1.704,5.86,1111122 
SCCF RECON,ioos:station:SCCF:11:1,2017-10-05T12:00:00Z,26.4679,-82.0631,1.659,6.22,1111122 
SCCF RECON,ioos:station:SCCF:11:1,2017-10-05T13:00:00Z,26.4679,-82.0631,1.761,5.69,1111122 
SCCF RECON,ioos:station:SCCF:11:1,2017-10-05T14:00:00Z,26.4679,-82.0631,1.953,6.52,1111122 
SCCF RECON,ioos:station:SCCF:11:1,2017-10-05T15:00:00Z,26.4679,-82.0631,2.106,6.4,1111122 
SCCF RECON,ioos:station:SCCF:11:1,2017-10-05T16:00:00Z,26.4679,-82.0631,2.184,6.4,1111122 
SCCF RECON,ioos:station:SCCF:11:1,2017-10-05T18:00:00Z,26.4679,-82.0631,2.24,6.24,1111122 
SCCF RECON,ioos:station:SCCF:11:1,2017-10-05T19:00:00Z,26.4679,-82.0631,2.22,6.04,1111122 
SCCF RECON,ioos:station:SCCF:11:1,2017-10-05T20:00:00Z,26.4679,-82.0631,2.16,6.18,1111122 
SCCF RECON,ioos:station:SCCF:11:1,2017-10-05T21:00:00Z,26.4679,-82.0631,2.029,6.31,1111122 
SCCF RECON,ioos:station:SCCF:11:1,2017-10-05T22:00:00Z,26.4679,-82.0631,1.891,6.19,1111122 
SCCF RECON,ioos:station:SCCF:11:1,2017-10-06T04:00:00Z,26.4679,-82.0631,2.33,6.03,1111122 
SCCF RECON,ioos:station:SCCF:11:1,2017-10-06T05:00:00Z,26.4679,-82.0631,2.4,5.91,1111122 
SCCF RECON,ioos:station:SCCF:11:1,2017-10-06T06:00:00Z,26.4679,-82.0631,2.46,5.93,1111122 
SCCF RECON,ioos:station:SCCF:11:1,2017-10-06T07:00:00Z,26.4679,-82.0631,2.46,5.81,1111122 
SCCF RECON,ioos:station:SCCF:11:1,2017-10-06T08:00:00Z,26.4679,-82.0631,2.37,5.86,1111122 
SCCF RECON,ioos:station:SCCF:11:1,2017-10-06T09:00:00Z,26.4679,-82.0631,2.212,5.79,1111122 
SCCF RECON,ioos:station:SCCF:11:1,2017-10-06T10:00:00Z,26.4679,-82.0631,2.048,5.72,1111122 
SCCF RECON,ioos:station:SCCF:11:1,2017-10-06T11:00:00Z,26.4679,-82.0631,1.937,5.41,1111122 
SCCF RECON,ioos:station:SCCF:11:1,2017-10-06T12:00:00Z,26.4679,-82.0631,1.86,5.42,1111122 
SCCF RECON,ioos:station:SCCF:11:1,2017-10-06T13:00:00Z,26.4679,-82.0631,1.86,5.55,1111122 
SCCF RECON,ioos:station:SCCF:11:1,2017-10-06T14:00:00Z,26.4679,-82.0631,2.03,5.45,1111122 
SCCF RECON,ioos:station:SCCF:11:1,2017-10-06T15:00:00Z,26.4679,-82.0631,2.233,5.9,1111122 
SCCF RECON,ioos:station:SCCF:11:1,2017-10-06T16:00:00Z,26.4679,-82.0631,2.365,5.73,1111122 
SCCF RECON,ioos:station:SCCF:11:1,2017-10-06T17:00:00Z,26.4679,-82.0631,2.428,5.28,1111122 
SCCF RECON,ioos:station:SCCF:11:1,2017-10-06T18:00:00Z,26.4679,-82.0631,2.479,5.24,1111122 
SCCF RECON,ioos:station:SCCF:11:1,2017-10-06T19:00:00Z,26.4679,-82.0631,2.48,5.54,1111122 
SCCF RECON,ioos:station:SCCF:11:1,2017-10-06T20:00:00Z,26.4679,-82.0631,2.396,5.76,1111122 
SCCF RECON,ioos:station:SCCF:11:1,2017-10-06T21:00:00Z,26.4679,-82.0631,2.26,5.61,1111122 
SCCF RECON,ioos:station:SCCF:11:1,2017-10-06T22:00:00Z,26.4679,-82.0631,2.16,5.59,1111122 
SCCF RECON,ioos:station:SCCF:11:1,2017-10-07T04:00:00Z,26.4679,-82.0631,2.373,5.72,1111122 
SCCF RECON,ioos:station:SCCF:11:1,2017-10-07T05:00:00Z,26.4679,-82.0631,2.45,5.68,1111122 
SCCF RECON,ioos:station:SCCF:11:1,2017-10-07T06:00:00Z,26.4679,-82.0631,2.5,5.52,1111122 
SCCF RECON,ioos:station:SCCF:11:1,2017-10-07T07:00:00Z,26.4679,-82.0631,2.5,5.59,1111122 
SCCF RECON,ioos:station:SCCF:11:1,2017-10-07T08:00:00Z,26.4679,-82.0631,2.42,5.69,1111122 
SCCF RECON,ioos:station:SCCF:11:1,2017-10-07T09:00:00Z,26.4679,-82.0631,2.247,5.26,1111122 
SCCF RECON,ioos:station:SCCF:11:1,2017-10-07T10:00:00Z,26.4679,-82.0631,2.085,5.01,1111122 
SCCF RECON,ioos:station:SCCF:11:1,2017-10-07T11:00:00Z,26.4679,-82.0631,1.978,4.92,1111122 
SCCF RECON,ioos:station:SCCF:11:1,2017-10-07T12:00:00Z,26.4679,-82.0631,1.89,4.52,1111122 
SCCF RECON,ioos:station:SCCF:11:1,2017-10-07T13:00:00Z,26.4679,-82.0631,1.81,4.44,1111122 
SCCF RECON,ioos:station:SCCF:11:1,2017-10-07T14:00:00Z,26.4679,-82.0631,1.898,4.5,1111122 
SCCF RECON,ioos:station:SCCF:11:1,2017-10-07T15:00:00Z,26.4679,-82.0631,2.139,5.7,1111122 
SCCF RECON,ioos:station:SCCF:11:1,2017-10-07T16:00:00Z,26.4679,-82.0631,2.297,5.64,1111122 
SCCF RECON,ioos:station:SCCF:11:1,2017-10-07T17:00:00Z,26.4679,-82.0631,2.409,5.63,1111122 
SCCF RECON,ioos:station:SCCF:11:1,2017-10-07T18:00:00Z,26.4679,-82.0631,2.509,5.9,1111122 
SCCF RECON,ioos:station:SCCF:11:1,2017-10-07T19:00:00Z,26.4679,-82.0631,2.58,6.12,1111122 
SCCF RECON,ioos:station:SCCF:11:1,2017-10-07T20:00:00Z,26.4679,-82.0631,2.567,6.23,1111122 
SCCF RECON,ioos:station:SCCF:11:1,2017-10-07T21:00:00Z,26.4679,-82.0631,2.499,6.42,1111122 
SCCF RECON,ioos:station:SCCF:11:1,2017-10-07T22:00:00Z,26.4679,-82.0631,2.4,7.17,1111122 
SCCF RECON,ioos:station:SCCF:11:1,2017-10-08T04:00:00Z,26.4679,-82.0631,2.425,6.97,1111122 
SCCF RECON,ioos:station:SCCF:11:1,2017-10-08T05:00:00Z,26.4679,-82.0631,2.47,6.35,1111122 
SCCF RECON,ioos:station:SCCF:11:1,2017-10-08T06:00:00Z,26.4679,-82.0631,2.51,6.36,1111122 
SCCF RECON,ioos:station:SCCF:11:1,2017-10-08T07:00:00Z,26.4679,-82.0631,2.53,6.39,1111122 
SCCF RECON,ioos:station:SCCF:11:1,2017-10-08T08:00:00Z,26.4679,-82.0631,2.48,6.46,1111122 
SCCF RECON,ioos:station:SCCF:11:1,2017-10-08T09:00:00Z,26.4679,-82.0631,2.339,6.01,1111122 
SCCF RECON,ioos:station:SCCF:11:1,2017-10-08T10:00:00Z,26.4679,-82.0631,2.159,5.5,1111122 
SCCF RECON,ioos:station:SCCF:11:1,2017-10-08T11:00:00Z,26.4679,-82.0631,2.02,5.31,1111122 
SCCF RECON,ioos:station:SCCF:11:1,2017-10-08T12:00:00Z,26.4679,-82.0631,1.89,5.16,1111122 
SCCF RECON,ioos:station:SCCF:11:1,2017-10-08T13:00:00Z,26.4679,-82.0631,1.755,5.12,1111122 
SCCF RECON,ioos:station:SCCF:11:1,2017-10-08T14:00:00Z,26.4679,-82.0631,1.701,4.41,1111122 
SCCF RECON,ioos:station:SCCF:11:1,2017-10-08T15:00:00Z,26.4679,-82.0631,1.783,5.53,1111122 
SCCF RECON,ioos:station:SCCF:11:1,2017-10-08T16:00:00Z,26.4679,-82.0631,1.987,7.0,1111122 
SCCF RECON,ioos:station:SCCF:11:1,2017-10-08T17:00:00Z,26.4679,-82.0631,2.18,8.73,1111122 
SCCF RECON,ioos:station:SCCF:11:1,2017-10-08T18:00:00Z,26.4679,-82.0631,2.29,6.23,1111122 
SCCF RECON,ioos:station:SCCF:11:1,2017-10-08T19:00:00Z,26.4679,-82.0631,2.36,5.93,1111122 
SCCF RECON,ioos:station:SCCF:11:1,2017-10-08T20:00:00Z,26.4679,-82.0631,2.391,6.35,1111122 
SCCF RECON,ioos:station:SCCF:11:1,2017-10-08T21:00:00Z,26.4679,-82.0631,2.373,6.45,1111122 
SCCF RECON,ioos:station:SCCF:11:1,2017-10-08T22:00:00Z,26.4679,-82.0631,2.3,6.69,1111122 
SCCF RECON,ioos:station:SCCF:11:1,2017-10-09T08:00:00Z,26.4679,-82.0631,2.48,6.21,1111122 
SCCF RECON,ioos:station:SCCF:11:1,2017-10-09T09:00:00Z,26.4679,-82.0631,2.4,5.99,1111122 
SCCF RECON,ioos:station:SCCF:11:1,2017-10-09T11:00:00Z,26.4679,-82.0631,2.093,5.4,1111122 
SCCF RECON,ioos:station:SCCF:11:1,2017-10-09T12:00:00Z,26.4679,-82.0631,1.931,5.33,1111122 
SCCF RECON,ioos:station:SCCF:11:1,2017-10-09T13:00:00Z,26.4679,-82.0631,1.798,5.29,1111122 
SCCF RECON,ioos:station:SCCF:11:1,2017-10-09T14:00:00Z,26.4679,-82.0631,1.674,5.58,1111122 
SCCF RECON,ioos:station:SCCF:11:1,2017-10-09T15:00:00Z,26.4679,-82.0631,1.639,4.93,1111122 
SCCF RECON,ioos:station:SCCF:11:1,2017-10-09T16:00:00Z,26.4679,-82.0631,1.722,5.86,1111122 
SCCF RECON,ioos:station:SCCF:11:1,2017-10-09T18:00:00Z,26.4679,-82.0631,2.049,6.49,1111122 
SCCF RECON,ioos:station:SCCF:11:1,2017-10-09T19:00:00Z,26.4679,-82.0631,2.143,6.34,1111122 
SCCF RECON,ioos:station:SCCF:11:1,2017-10-09T20:00:00Z,26.4679,-82.0631,2.221,6.19,1111122 
SCCF RECON,ioos:station:SCCF:11:1,2017-10-09T21:00:00Z,26.4679,-82.0631,2.248,5.79,1111122 
SCCF RECON,ioos:station:SCCF:11:1,2017-10-09T22:00:00Z,26.4679,-82.0631,2.236,5.15,1111122 
SCCF RECON,ioos:station:SCCF:11:1,2017-10-10T05:00:00Z,26.4679,-82.0631,2.22,5.76,1111122 
SCCF RECON,ioos:station:SCCF:11:1,2017-10-10T12:00:00Z,26.4679,-82.0631,2.011,5.17,1111122 
SCCF RECON,ioos:station:SCCF:11:1,2017-10-10T13:00:00Z,26.4679,-82.0631,1.882,4.55,1111122 
SCCF RECON,ioos:station:SCCF:11:1,2017-10-10T14:00:00Z,26.4679,-82.0631,1.748,4.59,1111122 
SCCF RECON,ioos:station:SCCF:11:1,2017-10-10T15:00:00Z,26.4679,-82.0631,1.645,4.38,1111122 
SCCF RECON,ioos:station:SCCF:11:1,2017-10-10T16:00:00Z,26.4679,-82.0631,1.61,6.03,1111122 
SCCF RECON,ioos:station:SCCF:11:1,2017-10-10T17:00:00Z,26.4679,-82.0631,1.683,5.93,1111122 
SCCF RECON,ioos:station:SCCF:11:1,2017-10-10T18:00:00Z,26.4679,-82.0631,1.823,6.78,1111122 
SCCF RECON,ioos:station:SCCF:11:1,2017-10-10T19:00:00Z,26.4679,-82.0631,1.97,5.98,1111122 
SCCF RECON,ioos:station:SCCF:11:1,2017-10-10T20:00:00Z,26.4679,-82.0631,2.07,5.72,1111122 
SCCF RECON,ioos:station:SCCF:11:1,2017-10-10T21:00:00Z,26.4679,-82.0631,2.113,5.49,1111122 
SCCF RECON,ioos:station:SCCF:11:1,2017-10-10T22:00:00Z,26.4679,-82.0631,2.17,5.13,1111122 
SCCF RECON,ioos:station:SCCF:11:1,2017-10-11T12:00:00Z,26.4679,-82.0631,2.096,5.06,1111122 
SCCF RECON,ioos:station:SCCF:11:1,2017-10-11T13:00:00Z,26.4679,-82.0631,1.952,5.02,1111122 
SCCF RECON,ioos:station:SCCF:11:1,2017-10-11T14:00:00Z,26.4679,-82.0631,1.838,4.85,1111122 
SCCF RECON,ioos:station:SCCF:11:1,2017-10-11T15:00:00Z,26.4679,-82.0631,1.722,4.84,1111122 
SCCF RECON,ioos:station:SCCF:11:1,2017-10-11T16:00:00Z,26.4679,-82.0631,1.607,5.48,1111122 
SCCF RECON,ioos:station:SCCF:11:1,2017-10-11T17:00:00Z,26.4679,-82.0631,1.548,5.75,1111122 
SCCF RECON,ioos:station:SCCF:11:1,2017-10-11T18:00:00Z,26.4679,-82.0631,1.607,5.95,1111122 
SCCF RECON,ioos:station:SCCF:11:1,2017-10-11T19:00:00Z,26.4679,-82.0631,1.738,6.1,1111122 
SCCF RECON,ioos:station:SCCF:11:1,2017-10-11T20:00:00Z,26.4679,-82.0631,1.847,5.76,1111122 
SCCF RECON,ioos:station:SCCF:11:1,2017-10-11T21:00:00Z,26.4679,-82.0631,1.941,5.61,1111122 
SCCF RECON,ioos:station:SCCF:11:1,2017-10-11T22:00:00Z,26.4679,-82.0631,2.015,5.76,1111122 
SCCF RECON,ioos:station:SCCF:11:1,2017-10-12T04:00:00Z,26.4679,-82.0631,2.04,5.27,1111122 
SCCF RECON,ioos:station:SCCF:11:1,2017-10-12T06:00:00Z,26.4679,-82.0631,2.03,5.57,1111122 
SCCF RECON,ioos:station:SCCF:11:1,2017-10-12T08:00:00Z,26.4679,-82.0631,2.16,5.49,1111122 
SCCF RECON,ioos:station:SCCF:11:1,2017-10-12T12:00:00Z,26.4679,-82.0631,2.261,4.68,1111122 
SCCF RECON,ioos:station:SCCF:11:1,2017-10-12T13:00:00Z,26.4679,-82.0631,2.15,5.49,1111122 
SCCF RECON,ioos:station:SCCF:11:1,2017-10-12T14:00:00Z,26.4679,-82.0631,2.023,5.39,1111122 
SCCF RECON,ioos:station:SCCF:11:1,2017-10-12T15:00:00Z,26.4679,-82.0631,1.881,5.36,1111122 
SCCF RECON,ioos:station:SCCF:11:1,2017-10-12T16:00:00Z,26.4679,-82.0631,1.756,5.17,1111122 
SCCF RECON,ioos:station:SCCF:11:1,2017-10-12T17:00:00Z,26.4679,-82.0631,1.657,5.85,1111122 
SCCF RECON,ioos:station:SCCF:11:1,2017-10-12T18:00:00Z,26.4679,-82.0631,1.6,6.21,1111122 
SCCF RECON,ioos:station:SCCF:11:1,2017-10-12T19:00:00Z,26.4679,-82.0631,1.612,6.45,1111122 
SCCF RECON,ioos:station:SCCF:11:1,2017-10-12T20:00:00Z,26.4679,-82.0631,1.713,6.12,1111122 
SCCF RECON,ioos:station:SCCF:11:1,2017-10-12T21:00:00Z,26.4679,-82.0631,1.84,6.45,1111122 
SCCF RECON,ioos:station:SCCF:11:1,2017-10-12T22:00:00Z,26.4679,-82.0631,1.93,6.19,1111122 
SCCF RECON,ioos:station:SCCF:11:1,2017-10-13T04:00:00Z,26.4679,-82.0631,1.99,5.83,1111122 
SCCF RECON,ioos:station:SCCF:11:1,2017-10-13T05:00:00Z,26.4679,-82.0631,1.96,5.8,1111122 
SCCF RECON,ioos:station:SCCF:11:1,2017-10-13T06:00:00Z,26.4679,-82.0631,1.93,5.66,1111122 
SCCF RECON,ioos:station:SCCF:11:1,2017-10-13T07:00:00Z,26.4679,-82.0631,1.946,5.45,1111122 
SCCF RECON,ioos:station:SCCF:11:1,2017-10-13T08:00:00Z,26.4679,-82.0631,1.99,5.46,1111122 
SCCF RECON,ioos:station:SCCF:11:1,2017-10-13T09:00:00Z,26.4679,-82.0631,2.07,5.66,1111122 
SCCF RECON,ioos:station:SCCF:11:1,2017-10-13T10:00:00Z,26.4679,-82.0631,2.129,5.36,1111122 
SCCF RECON,ioos:station:SCCF:11:1,2017-10-13T11:00:00Z,26.4679,-82.0631,2.188,5.25,1111122 
SCCF RECON,ioos:station:SCCF:11:1,2017-10-13T12:00:00Z,26.4679,-82.0631,2.21,5.66,1111122 
SCCF RECON,ioos:station:SCCF:11:1,2017-10-13T13:00:00Z,26.4679,-82.0631,2.2,5.27,1111122 
SCCF RECON,ioos:station:SCCF:11:1,2017-10-13T14:00:00Z,26.4679,-82.0631,2.131,5.06,1111122 
SCCF RECON,ioos:station:SCCF:11:1,2017-10-13T15:00:00Z,26.4679,-82.0631,2.03,5.56,1111122 
SCCF RECON,ioos:station:SCCF:11:1,2017-10-13T16:00:00Z,26.4679,-82.0631,1.891,5.57,1111122 
SCCF RECON,ioos:station:SCCF:11:1,2017-10-13T17:00:00Z,26.4679,-82.0631,1.76,5.27,1111122 
SCCF RECON,ioos:station:SCCF:11:1,2017-10-13T18:00:00Z,26.4679,-82.0631,1.653,5.68,1111122 
SCCF RECON,ioos:station:SCCF:11:1,2017-10-13T19:00:00Z,26.4679,-82.0631,1.611,6.37,1111122 
SCCF RECON,ioos:station:SCCF:11:1,2017-10-13T20:00:00Z,26.4679,-82.0631,1.67,6.4,1111122 
SCCF RECON,ioos:station:SCCF:11:1,2017-10-13T21:00:00Z,26.4679,-82.0631,1.761,6.16,1111122 
SCCF RECON,ioos:station:SCCF:11:1,2017-10-13T22:00:00Z,26.4679,-82.0631,1.897,6.43,1111122 
SCCF RECON,ioos:station:SCCF:11:1,2017-10-14T04:00:00Z,26.4679,-82.0631,2.18,4.6,1111122 
SCCF RECON,ioos:station:SCCF:11:1,2017-10-14T05:00:00Z,26.4679,-82.0631,2.129,4.79,1111122 
SCCF RECON,ioos:station:SCCF:11:1,2017-10-14T06:00:00Z,26.4679,-82.0631,2.05,5.27,1111122 
SCCF RECON,ioos:station:SCCF:11:1,2017-10-14T07:00:00Z,26.4679,-82.0631,1.962,5.51,1111122 
SCCF RECON,ioos:station:SCCF:11:1,2017-10-14T09:00:00Z,26.4679,-82.0631,2.03,5.24,1111122 
SCCF RECON,ioos:station:SCCF:11:1,2017-10-14T10:00:00Z,26.4679,-82.0631,2.12,5.24,1111122 
SCCF RECON,ioos:station:SCCF:11:1,2017-10-14T11:00:00Z,26.4679,-82.0631,2.19,4.69,1111122 
SCCF RECON,ioos:station:SCCF:11:1,2017-10-14T12:00:00Z,26.4679,-82.0631,2.25,4.68,1111122 
SCCF RECON,ioos:station:SCCF:11:1,2017-10-14T13:00:00Z,26.4679,-82.0631,2.29,4.36,1111122 
SCCF RECON,ioos:station:SCCF:11:1,2017-10-14T14:00:00Z,26.4679,-82.0631,2.302,4.74,1111122 
SCCF RECON,ioos:station:SCCF:11:1,2017-10-14T15:00:00Z,26.4679,-82.0631,2.257,4.71,1111122 
SCCF RECON,ioos:station:SCCF:11:1,2017-10-14T16:00:00Z,26.4679,-82.0631,2.145,4.89,1111122 
SCCF RECON,ioos:station:SCCF:11:1,2017-10-14T17:00:00Z,26.4679,-82.0631,1.99,5.67,1111122 
SCCF RECON,ioos:station:SCCF:11:1,2017-10-14T18:00:00Z,26.4679,-82.0631,1.843,6.14,1111122 
SCCF RECON,ioos:station:SCCF:11:1,2017-10-14T19:00:00Z,26.4679,-82.0631,1.735,6.15,1111122 
SCCF RECON,ioos:station:SCCF:11:1,2017-10-14T20:00:00Z,26.4679,-82.0631,1.669,6.34,1111122 
SCCF RECON,ioos:station:SCCF:11:1,2017-10-14T21:00:00Z,26.4679,-82.0631,1.659,6.37,1111122 
SCCF RECON,ioos:station:SCCF:11:1,2017-10-14T22:00:00Z,26.4679,-82.0631,1.762,5.98,1111122 
SCCF RECON,ioos:station:SCCF:11:1,2017-10-15T04:00:00Z,26.4679,-82.0631,2.18,4.7,1111122 
SCCF RECON,ioos:station:SCCF:11:1,2017-10-15T05:00:00Z,26.4679,-82.0631,2.15,4.24,1111122 
SCCF RECON,ioos:station:SCCF:11:1,2017-10-15T07:00:00Z,26.4679,-82.0631,1.976,5.14,1111122 
SCCF RECON,ioos:station:SCCF:11:1,2017-10-15T09:00:00Z,26.4679,-82.0631,1.9,4.54,1111122 
SCCF RECON,ioos:station:SCCF:11:1,2017-10-15T10:00:00Z,26.4679,-82.0631,1.963,4.44,1111122 
SCCF RECON,ioos:station:SCCF:11:1,2017-10-15T11:00:00Z,26.4679,-82.0631,2.09,5.29,1111122 
SCCF RECON,ioos:station:SCCF:11:1,2017-10-15T12:00:00Z,26.4679,-82.0631,2.21,5.16,1111122 
SCCF RECON,ioos:station:SCCF:11:1,2017-10-15T13:00:00Z,26.4679,-82.0631,2.28,4.61,1111122 
SCCF RECON,ioos:station:SCCF:11:1,2017-10-15T14:00:00Z,26.4679,-82.0631,2.34,4.83,1111122 
SCCF RECON,ioos:station:SCCF:11:1,2017-10-15T15:00:00Z,26.4679,-82.0631,2.351,4.84,1111122 
SCCF RECON,ioos:station:SCCF:11:1,2017-10-15T16:00:00Z,26.4679,-82.0631,2.31,4.36,1111122 
SCCF RECON,ioos:station:SCCF:11:1,2017-10-15T17:00:00Z,26.4679,-82.0631,2.196,5.14,1111122 
SCCF RECON,ioos:station:SCCF:11:1,2017-10-15T18:00:00Z,26.4679,-82.0631,2.057,5.27,1111122 
SCCF RECON,ioos:station:SCCF:11:1,2017-10-15T19:00:00Z,26.4679,-82.0631,1.931,5.73,1111122 
SCCF RECON,ioos:station:SCCF:11:1,2017-10-15T20:00:00Z,26.4679,-82.0631,1.825,6.25,1111122 
SCCF RECON,ioos:station:SCCF:11:1,2017-10-15T21:00:00Z,26.4679,-82.0631,1.75,6.8,1111122 
SCCF RECON,ioos:station:SCCF:11:1,2017-10-15T22:00:00Z,26.4679,-82.0631,1.775,6.61,1111122 
SCCF RECON,ioos:station:SCCF:11:1,2017-10-16T04:00:00Z,26.4679,-82.0631,2.31,5.47,1111122 
SCCF RECON,ioos:station:SCCF:11:1,2017-10-16T05:00:00Z,26.4679,-82.0631,2.22,5.28,1111122 
SCCF RECON,ioos:station:SCCF:11:1,2017-10-16T08:00:00Z,26.4679,-82.0631,1.936,5.33,1111122 
SCCF RECON,ioos:station:SCCF:11:1,2017-10-16T09:00:00Z,26.4679,-82.0631,1.866,5.05,1111122 
SCCF RECON,ioos:station:SCCF:11:1,2017-10-16T10:00:00Z,26.4679,-82.0631,1.867,4.62,1111122 
SCCF RECON,ioos:station:SCCF:11:1,2017-10-16T12:00:00Z,26.4679,-82.0631,2.099,4.89,1111122 
SCCF RECON,ioos:station:SCCF:11:1,2017-10-16T13:00:00Z,26.4679,-82.0631,2.21,4.79,1111122 
SCCF RECON,ioos:station:SCCF:11:1,2017-10-16T14:00:00Z,26.4679,-82.0631,2.27,4.55,1111122 
SCCF RECON,ioos:station:SCCF:11:1,2017-10-16T15:00:00Z,26.4679,-82.0631,2.324,4.55,1111122 
SCCF RECON,ioos:station:SCCF:11:1,2017-10-16T16:00:00Z,26.4679,-82.0631,2.34,4.16,1111122 
SCCF RECON,ioos:station:SCCF:11:1,2017-10-16T17:00:00Z,26.4679,-82.0631,2.3,4.52,1111122 
SCCF RECON,ioos:station:SCCF:11:1,2017-10-16T18:00:00Z,26.4679,-82.0631,2.18,5.05,1111122 
SCCF RECON,ioos:station:SCCF:11:1,2017-10-16T19:00:00Z,26.4679,-82.0631,2.022,5.86,1111122 
SCCF RECON,ioos:station:SCCF:11:1,2017-10-16T20:00:00Z,26.4679,-82.0631,1.894,6.8,1111122 
SCCF RECON,ioos:station:SCCF:11:1,2017-10-16T21:00:00Z,26.4679,-82.0631,1.791,7.22,1111122 
SCCF RECON,ioos:station:SCCF:11:1,2017-10-16T22:00:00Z,26.4679,-82.0631,1.72,7.03,1111122 
SCCF RECON,ioos:station:SCCF:11:1,2017-10-17T05:00:00Z,26.4679,-82.0631,2.31,4.47,1111122 
SCCF RECON,ioos:station:SCCF:11:1,2017-10-17T09:00:00Z,26.4679,-82.0631,1.85,4.81,1111122 
SCCF RECON,ioos:station:SCCF:11:1,2017-10-17T11:00:00Z,26.4679,-82.0631,1.8,4.04,1111122 
SCCF RECON,ioos:station:SCCF:11:1,2017-10-17T12:00:00Z,26.4679,-82.0631,1.939,5.02,1111122 
SCCF RECON,ioos:station:SCCF:11:1,2017-10-17T13:00:00Z,26.4679,-82.0631,2.1,4.87,1111122 